Content
SEND FEEDBACK

Daily
Averages
Monthly
Summary
United States of America

JAMESTOWN, NORTH CAROLINA


Home > North America > United States > North Carolina
Elevation: 886 feet     Latitude: 36 01N     Longitude: 079 57W

WEATHER
 
SELECT A DAY
Number of Records: 103,051;   Date Range: 1/1/95 - 9/22/14
 
SHARE

PRINT THIS DATA

[ ← Previous Day ]
WEATHER ALMANAC - APRIL 7, 2014
[ Next Day → ]
[ °C ]   °F
Weather ElementAverageHighLow
Temperature48.6 °F60.8 °F (11:29 pm)42.8 °F (7:20 am)
Dewpoint46.1 °F57 °F (11:54 pm)39.2 °F (7:20 am)
Humidity91 %94 % (6:20 pm)68 % (1:54 am)
Barometer29.86 in30.06 in (1:54 am)29.63 in (11:54 pm)
Wind Speed8.4 mph16.1 mph (10:40 pm)
Wind Gust25.3 mph (11:29 pm)
Weather ElementAverage
Visibility6.2 mi
Wind DirectionESE (116.4 °)

Weather ElementTotal
Precipitation3.75 in
Heating Degree Days13.2 (Base 65)
Growing Degree Days1.8 (Base 50)
Averaged from 47 records on April 7, 2014
WEATHER CONDITIONS BREAKOUT
WIND DIRECTION BREAKOUT
WEATHER BY HOUR - APRIL 7, 2014
[ °C ]   °F
Local TimeTemperatureDewpointHumidityBarometerVisibilityWind DirectionWind SpeedGust SpeedPrecipitationEventsConditions
1:54 AM50.0 °F39.9 °F68 %30.06 in8.0 miNNE (20°)4.6 mph0.00 inRainLight Rain
2:54 AM46.9 °F43.0 °F86 %30.04 in4.0 miNorth (10°)4.6 mph0.04 inRainRain
3:54 AM46.9 °F44.1 °F90 %30.01 in3.0 miENE (60°)8.1 mph0.06 inRainLight Rain
4:11 AM46.4 °F44.6 °F93 %30.01 in5.0 miNE (40°)8.1 mph0.01 inRainLight Rain
4:54 AM46.0 °F44.1 °F93 %29.99 in4.0 miNE (40°)9.2 mph0.07 inRainRain
5:54 AM46.0 °F44.1 °F93 %29.98 in5.0 miENE (60°)6.9 mph0.12 inRainRain
6:54 AM44.1 °F42.1 °F93 %29.99 in3.0 miNE (50°)8.1 mph0.18 inRainRain
7:20 AM42.8 °F39.2 °F87 %29.99 in4.0 miNE (40°)10.4 mph0.10 inRainRain
7:51 AM42.8 °F41.0 °F93 %29.99 in4.0 miNE (40°)6.9 mph0.21 inRainRain
7:54 AM43.0 °F41.0 °F93 %29.98 in2.5 miNE (50°)9.2 mph0.22 inRainRain
8:01 AM42.8 °F41.0 °F93 %29.97 in1.2 miNE (50°)10.4 mph17.3 mph0.06 inRainHeavy Rain
8:13 AM42.8 °F41.0 °F93 %29.95 in1.5 miENE (60°)13.8 mph0.15 inRainHeavy Rain
8:27 AM42.8 °F41.0 °F93 %29.95 in2.5 miNE (50°)10.4 mph0.20 inRainRain
8:30 AM42.8 °F41.0 °F93 %29.94 in1.5 miNE (50°)13.8 mph0.21 inRainHeavy Rain
8:32 AM42.8 °F41.0 °F93 %29.94 in1.2 miENE (60°)15.0 mph20.7 mph0.24 inRainHeavy Rain
8:43 AM42.8 °F41.0 °F93 %29.94 in2.5 miNE (50°)11.5 mph0.32 inRainHeavy Rain
8:54 AM44.1 °F42.1 °F93 %29.94 in2.5 miNE (50°)8.1 mph0.35 inRainRain
9:05 AM44.6 °F42.8 °F93 %29.96 in3.0 miNNE (30°)5.8 mph0.03 inRainRain
9:34 AM44.6 °F42.8 °F93 %29.95 in2.5 miENE (60°)5.8 mph0.10 inRainRain
9:39 AM44.6 °F42.8 °F93 %29.94 in1.2 miENE (60°)11.5 mph0.15 inRainHeavy Rain
9:54 AM43.0 °F41.0 °F93 %29.93 in2.0 miNE (50°)12.7 mph0.31 inRainHeavy Rain
10:15 AM42.8 °F41.0 °F93 %29.99 in1.8 miNW (320°)6.9 mph23.0 mph0.14 inRainHeavy Rain
10:28 AM44.6 °F42.8 °F93 %29.97 in4.0 miNNE (30°)3.5 mph0.18 inRainRain
10:54 AM44.1 °F42.1 °F93 %29.96 in3.0 miNE (50°)4.6 mph0.26 inRainLight Rain
11:27 AM44.6 °F42.8 °F93 %29.93 in10.0 miESE (120°)8.1 mph0.02 inRainLight Rain
11:54 AM45.0 °F43.0 °F93 %29.85 in10.0 miSE (140°)15.0 mph20.7 mph0.02 inOvercast
12:46 PM46.4 °F44.6 °F93 %29.87 in10.0 miVariable3.5 mph0.00 inOvercast
12:54 PM48.0 °F45.0 °F89 %29.86 in10.0 miNW (310°)3.5 mph0.00 inOvercast
1:45 PM48.2 °F44.6 °F87 %29.87 in10.0 miNW (320°)5.8 mphOvercast
1:54 PM48.0 °F45.0 °F89 %29.87 in10.0 miNW (310°)5.8 mphOvercast
2:54 PM48.9 °F46.9 °F93 %29.85 in8.0 miWSW (250°)4.6 mph0.00 inRainLight Rain
3:54 PM51.8 °F48.2 °F88 %29.79 in10.0 miCalmOvercast
4:54 PM52.0 °F48.0 °F86 %29.74 in10.0 miCalmOvercast
5:54 PM52.0 °F50.0 °F93 %29.71 in9.0 miCalmOvercast
6:20 PM53.6 °F51.8 °F94 %29.72 in7.0 miSSW (200°)5.8 mphOvercast
6:54 PM53.1 °F51.1 °F93 %29.70 in7.0 miSouth (180°)8.1 mph0.00 inRainLight Rain
7:04 PM53.6 °F51.8 °F94 %29.70 in9.0 miSouth (190°)4.6 mph0.00 inMostly Cloudy
7:20 PM53.6 °F51.8 °F94 %29.71 in9.0 miWSW (240°)4.6 mph0.00 inOvercast
7:54 PM54.0 °F52.0 °F93 %29.69 in10.0 miSouth (180°)5.8 mph0.00 inOvercast
8:36 PM55.4 °F53.6 °F94 %29.69 in10.0 miSSW (200°)10.4 mphOvercast
8:54 PM55.9 °F54.0 °F93 %29.70 in10.0 miSSW (200°)11.5 mphOvercast
9:54 PM57.9 °F55.0 °F90 %29.69 in10.0 miSSW (200°)13.8 mph20.7 mphOvercast
10:40 PM59.0 °F55.4 °F88 %29.68 in10.0 miSSW (210°)16.1 mph23.0 mphOvercast
10:51 PM59.0 °F55.4 °F88 %29.67 in10.0 miSSW (210°)13.8 mph19.6 mphOvercast
10:54 PM59.0 °F55.9 °F90 %29.66 in10.0 miSSW (210°)15.0 mph24.2 mphOvercast
11:29 PM60.8 °F55.4 °F82 %29.65 in10.0 miSSW (210°)13.8 mph25.3 mphOvercast
11:54 PM60.1 °F57.0 °F90 %29.63 in8.0 miSSW (210°)13.8 mph23.0 mph0.00 inRainLight Rain
Hourly data recorded from KGSO, located miles away from Jamestown, North Carolina







STORIES FROM OUR PARTNERS